Showing default

LPNTSAT-002, 68409

Orbit data source: Space-Track

LPNTSAT-002, 68409 is a payload satellite owned by ESA (ESA) in SSO that was launched on Sat, 28 Mar 2026 UTC via an ELECTRON launch vehicle from the Rocket Lab Launch Complex (RLLC). Payload-class satellites include a variety of spacecraft equipped with specific instruments for various scientific and technological missions. These include communications satellites like Starlink; space stations such as the ISS; scientific satellites like the Hubble; Earth observation satellites from companies like Planet Labs, Umbra, and HawkEye 360; GPS; miniature CubeSats for education and research; and military/defense satellites.

Loading next visibility...
Identifier
68409, 2026-065B
Orbit
SSO
Country
Flag of ESAESA
Related business
Manufacturer
THALAQ
Mission
Operational spacecraft
Bus & Motor
CUBESAT 16U, Unknown motor
Mass
30 kg wet, 30 kg dry
Launch date (UTC)
2026-03-28 (2 weeks ago)
Launch vehicle
ELECTRON
Launch site
Rocket Lab Launch Complex (RLLC)
Object type
Payload
Rocket body
Debris
Shape & HBR
Unknown
Radar Cross Section
RCS unknown

Expand to show TLE details & history
Last TLE update: 12 hours ago

TLE from 12 hours ago
0 LPNTSAT-002
1 68409U 26065B   26102.11027694  .00004285  00000-0  21119-3 0  9993
2 68409  97.4098 343.9950 0012790 225.3499 134.6694 15.18407357  2211
Epoch: 2026-04-12T02:38Z
TLE epoch observation values (Epoch: 2026-04-12T02:38:47.927Z)
Latitude
0.00002°
Longitude
103.97536°
Altitude
519.943 km
Speed
7.6 km/s
True Right ascension
22h 55m 58s
True Declination
0° 00' 00"
Sunlit
Object was in daylight at epoch
Visualization orbit readout
Latitude
Unknown
Longitude
Unknown
Altitude
Unknown
Speed
Unknown
Apparent Right ascension
Unknown
Apparent Declination
Unknown
Sunlit
N/A
Visualization observer readout
Local Sidereal Time
20:41:37
Azimuth
Unknown
Elevation
Unknown
Doppler factor
Unknown
Orbital elements
Apogee altitude
516.428 km
Perigee altitude
498.815 km
Semi-major axis
6,885.759 km
Eccentricity
0.00128
Inclination
97.4098°
RAAN
343.995°
Arg. of periapsis
225.3499°
True anomaly
134.77351°
Mean anomaly
134.6694°
Eccentric anomaly
134.72147°
Mean motion
3.79853 °/min
Orbital period
94.77 mins
BSTAR
0.00021119
Loading maneuver chart data...
Computing Atmospheric mass density...
Loading historical data...
Loading historical data...
Loading historical data...
Loading historical data...
Loading historical data...
Loading historical data...
Loading historical data...
Other satellites on launch #65 in the year 2026 (2026-03-28 UTC)

Documentation

Showing up to 5 results
|